Hourly Weather Holoholnya

Today, 11 April, Sunday

Time Temperature Precipitation Wind Pressure Humidity
00:00 +3°C° 0 mm 2 mps 755 mmHg 64%
01:00 +3°C° 0 mm 2 mps 755 mmHg 66%
02:00 +3°C° 0 mm 2 mps 755 mmHg 68%
03:00 +2°C° 0 mm 2 mps 755 mmHg 69%
04:00 +2°C° 0 mm 2 mps 756 mmHg 70%
05:00 +3°C° 0 mm 1 mps 756 mmHg 71%
06:00 +5°C° 0 mm 1 mps 756 mmHg 66%
07:00 +6°C° 0 mm 1 mps 757 mmHg 61%
08:00 +8°C° 0 mm 1 mps 757 mmHg 56%
09:00 +10°C° 0 mm 1 mps 757 mmHg 51%
10:00 +11°C° 0 mm 1 mps 757 mmHg 47%
11:00 +12°C° 0 mm 0 mps 757 mmHg 43%
12:00 +13°C° 0 mm 1 mps 757 mmHg 41%
13:00 +14°C° 0 mm 1 mps 757 mmHg 40%
14:00 +15°C° 0 mm 1 mps 757 mmHg 38%
15:00 +14°C° 0 mm 1 mps 757 mmHg 40%
16:00 +14°C° 0 mm 1 mps 757 mmHg 43%
17:00 +14°C° 0 mm 2 mps 757 mmHg 46%
18:00 +13°C° 0 mm 2 mps 758 mmHg 50%
19:00 +10°C° 0 mm 2 mps 758 mmHg 54%
20:00 +9°C° 0 mm 2 mps 758 mmHg 59%
21:00 +8°C° 0 mm 2 mps 758 mmHg 61%
22:00 +7°C° 0 mm 2 mps 758 mmHg 64%
23:00 +7°C° 0 mm 2 mps 758 mmHg 67%

Tomorrow, 12 April, Monday

Time Temperature Precipitation Wind Pressure Humidity
00:00 +5°C° 0 mm 3 mps 758 mmHg 68%
01:00 +5°C° 0 mm 3 mps 759 mmHg 70%
02:00 +4°C° 0 mm 3 mps 759 mmHg 72%
03:00 +4°C° 0 mm 3 mps 758 mmHg 71%
04:00 +4°C° 0 mm 4 mps 758 mmHg 70%
05:00 +3°C° 0 mm 4 mps 758 mmHg 69%
06:00 +3°C° 0 mm 5 mps 758 mmHg 65%
07:00 +5°C° 0 mm 5 mps 758 mmHg 60%
08:00 +5°C° 0 mm 6 mps 758 mmHg 55%
09:00 +7°C° 0 mm 6 mps 757 mmHg 61%
10:00 +8°C° 0 mm 6 mps 757 mmHg 66%
11:00 +9°C° 0 mm 5 mps 757 mmHg 72%
12:00 +10°C° 0 mm 5 mps 756 mmHg 70%
13:00 +12°C° 0 mm 5 mps 756 mmHg 68%
14:00 +14°C° 0 mm 5 mps 756 mmHg 66%
15:00 +14°C° 0 mm 5 mps 755 mmHg 68%
16:00 +14°C° 0 mm 4 mps 755 mmHg 70%
17:00 +14°C° 0 mm 4 mps 755 mmHg 72%
18:00 +13°C° 0 mm 4 mps 755 mmHg 77%
19:00 +12°C° 0 mm 4 mps 755 mmHg 82%
20:00 +10°C° 0 mm 3 mps 755 mmHg 87%
21:00 +10°C° 0 mm 3 mps 754 mmHg 86%
22:00 +10°C° 0 mm 3 mps 754 mmHg 86%
23:00 +10°C° 0 mm 3 mps 754 mmHg 85%

Day after tomorrow, 13 April, Tuesday

Time Temperature Precipitation Wind Pressure Humidity
00:00 +9°C° 0 mm 3 mps 754 mmHg 84%
01:00 +9°C° 0 mm 3 mps 754 mmHg 83%
02:00 +8°C° 0 mm 3 mps 754 mmHg 82%
03:00 +8°C° 0 mm 3 mps 754 mmHg 82%
04:00 +8°C° 0 mm 3 mps 754 mmHg 83%
05:00 +8°C° 0 mm 3 mps 754 mmHg 83%
06:00 +9°C° 0 mm 3 mps 754 mmHg 75%
07:00 +11°C° 0 mm 4 mps 754 mmHg 68%
08:00 +13°C° 0 mm 4 mps 754 mmHg 60%
09:00 +14°C° 0 mm 5 mps 754 mmHg 54%
10:00 +16°C° 0 mm 5 mps 754 mmHg 49%
11:00 +19°C° 0 mm 5 mps 754 mmHg 43%
12:00 +19°C° 0 mm 5 mps 753 mmHg 41%
13:00 +20°C° 0 mm 5 mps 753 mmHg 39%
14:00 +20°C° 0 mm 5 mps 753 mmHg 38%
15:00 +20°C° 0 mm 5 mps 753 mmHg 40%
16:00 +19°C° 0 mm 4 mps 753 mmHg 43%
17:00 +19°C° 0 mm 3 mps 752 mmHg 45%
18:00 +17°C° 0 mm 3 mps 752 mmHg 50%
19:00 +16°C° 0 mm 3 mps 752 mmHg 55%
20:00 +13°C° 0 mm 3 mps 752 mmHg 59%
21:00 +12°C° 0 mm 4 mps 752 mmHg 61%
22:00 +12°C° 0 mm 4 mps 752 mmHg 62%
23:00 +11°C° 0 mm 4 mps 752 mmHg 63%

14 April, Wednesday

Time Temperature Precipitation Wind Pressure Humidity
00:00 +11°C° 0 mm 4 mps 752 mmHg 66%
01:00 +10°C° 0 mm 3 mps 752 mmHg 69%
02:00 +9°C° 0 mm 3 mps 752 mmHg 72%
03:00 +9°C° 0 mm 3 mps 752 mmHg 73%
04:00 +9°C° 0 mm 3 mps 751 mmHg 74%
05:00 +8°C° 0 mm 3 mps 751 mmHg 74%
06:00 +10°C° 0 mm 3 mps 751 mmHg 69%
07:00 +11°C° 0 mm 3 mps 751 mmHg 64%
08:00 +13°C° 0 mm 4 mps 751 mmHg 59%
09:00 +14°C° 0 mm 4 mps 751 mmHg 52%
10:00 +16°C° 0 mm 5 mps 750 mmHg 45%
11:00 +19°C° 0 mm 5 mps 750 mmHg 37%
12:00 +19°C° 0 mm 5 mps 750 mmHg 35%
13:00 +20°C° 0 mm 6 mps 750 mmHg 33%
14:00 +20°C° 0 mm 6 mps 749 mmHg 31%
15:00 +19°C° 0 mm 5 mps 749 mmHg 35%
16:00 +19°C° 0 mm 4 mps 749 mmHg 38%
17:00 +18°C° 0 mm 3 mps 749 mmHg 42%
18:00 +17°C° 0 mm 3 mps 749 mmHg 45%
19:00 +14°C° 0 mm 3 mps 749 mmHg 48%
20:00 +13°C° 0 mm 3 mps 749 mmHg 51%
21:00 +13°C° 0 mm 2 mps 748 mmHg 53%
22:00 +13°C° 0 mm 2 mps 748 mmHg 55%
23:00 +12°C° 0 mm 2 mps 748 mmHg 57%

15 April, Thursday

Time Temperature Precipitation Wind Pressure Humidity
00:00 +12°C° 0 mm 2 mps 748 mmHg 60%
01:00 +12°C° 0 mm 2 mps 748 mmHg 63%
02:00 +10°C° 0 mm 2 mps 748 mmHg 67%
03:00 +10°C° 0 mm 2 mps 748 mmHg 67%
04:00 +10°C° 0 mm 2 mps 748 mmHg 67%
05:00 +9°C° 0 mm 2 mps 748 mmHg 68%
06:00 +10°C° 0 mm 2 mps 748 mmHg 65%
07:00 +13°C° 0 mm 2 mps 748 mmHg 62%
08:00 +14°C° 0 mm 2 mps 748 mmHg 59%
09:00 +15°C° 0 mm 2 mps 748 mmHg 55%
10:00 +16°C° 0 mm 2 mps 748 mmHg 51%
11:00 +17°C° 0 mm 2 mps 748 mmHg 47%
12:00 +18°C° 0 mm 2 mps 748 mmHg 45%
13:00 +18°C° 0 mm 2 mps 747 mmHg 42%
14:00 +20°C° 0 mm 1 mps 747 mmHg 39%
15:00 +18°C° 0 mm 2 mps 747 mmHg 43%
16:00 +18°C° 0 mm 2 mps 747 mmHg 47%
17:00 +17°C° 0 mm 2 mps 747 mmHg 50%
18:00 +16°C° 0 mm 2 mps 747 mmHg 53%
19:00 +15°C° 0 mm 2 mps 747 mmHg 56%
20:00 +14°C° 0 mm 2 mps 747 mmHg 59%
21:00 +13°C° 0 mm 3 mps 747 mmHg 61%
22:00 +12°C° 0 mm 3 mps 747 mmHg 63%
23:00 +12°C° 0 mm 3 mps 747 mmHg 64%

16 April, Friday

Time Temperature Precipitation Wind Pressure Humidity
00:00 +11°C° 0 mm 4 mps 747 mmHg 68%
01:00 +10°C° 0 mm 5 mps 747 mmHg 73%
02:00 +9°C° 0 mm 5 mps 747 mmHg 77%
03:00 +9°C° 0 mm 6 mps 747 mmHg 79%
04:00 +8°C° 0 mm 7 mps 748 mmHg 82%
05:00 +7°C° 0 mm 8 mps 748 mmHg 84%
06:00 +7°C° 0 mm 8 mps 748 mmHg 83%
07:00 +7°C° 0 mm 8 mps 749 mmHg 81%
08:00 +7°C° 0 mm 9 mps 749 mmHg 80%
09:00 +7°C° 0.1 mm 9 mps 750 mmHg 80%
10:00 +6°C° 0.1 mm 9 mps 750 mmHg 80%
11:00 +6°C° 0.1 mm 8 mps 751 mmHg 80%
12:00 +6°C° 0.1 mm 9 mps 751 mmHg 77%
13:00 +6°C° 0.1 mm 9 mps 751 mmHg 74%
14:00 +6°C° 0.1 mm 9 mps 751 mmHg 72%
15:00 +7°C° 0 mm 9 mps 752 mmHg 65%
16:00 +7°C° 0 mm 9 mps 752 mmHg 59%
17:00 +7°C° 0 mm 9 mps 752 mmHg 52%
18:00 +7°C° 0 mm 8 mps 752 mmHg 51%
19:00 +6°C° 0 mm 8 mps 753 mmHg 51%
20:00 +5°C° 0 mm 8 mps 753 mmHg 50%
21:00 +4°C° 0 mm 8 mps 754 mmHg 52%
22:00 +4°C° 0 mm 7 mps 754 mmHg 54%
23:00 +3°C° 0 mm 7 mps 755 mmHg 56%
Show more